This is the latest recevied weather packets stored in our database for station/object SP1BMW-13. If no packets are shown the sender has not sent any weather packets the latest 10 day(s).
| Time | Temp. | Humidity | Pressure | Rain* | Wind** | Luminosity | Snow |
|---|---|---|---|---|---|---|---|
| 1787392802 | 20.56° C | 54% | 1009.1 hPa | 0 mm | 2.24 m/s, 245° | 238 W/m² | - |
| 1787392741 | 20.56° C | 56% | 1009 hPa | 0 mm | 1.79 m/s, 245° | 702 W/m² | - |
| 1787392682 | 20° C | 57% | 1009.1 hPa | 0 mm | 0.89 m/s, 276° | 682 W/m² | - |
| 1787392622 | 20° C | 58% | 1009.2 hPa | 0 mm | 1.79 m/s, 249° | 646 W/m² | - |
| 1787392562 | 20° C | 56% | 1009 hPa | 0 mm | 0.89 m/s, 108° | 628 W/m² | - |
| 1787392502 | 20° C | 55% | 1009.2 hPa | 0 mm | 0.89 m/s, 220° | 617 W/m² | - |
| 1787392442 | 19.44° C | 55% | 1009.1 hPa | 0 mm | 3.58 m/s, 248° | 616 W/m² | - |
| 1787392382 | 19.44° C | 57% | 1009.1 hPa | 0 mm | 0.89 m/s, 220° | 623 W/m² | - |
| 1787392322 | 19.44° C | 57% | 1009 hPa | 0 mm | 1.79 m/s, 221° | 632 W/m² | - |
| 1787392262 | 19.44° C | 59% | 1009.1 hPa | 0 mm | 0.45 m/s, 321° | 630 W/m² | - |
| 1787392202 | 19.44° C | 56% | 1009 hPa | 0 mm | 1.34 m/s, 297° | 641 W/m² | - |
| 1787392142 | 19.44° C | 55% | 1009.2 hPa | 0 mm | 2.68 m/s, 249° | 614 W/m² | - |
| 1787392082 | 19.44° C | 56% | 1009.1 hPa | 0 mm | 1.79 m/s, 278° | 648 W/m² | - |
| 1787392022 | 19.44° C | 56% | 1009 hPa | 0 mm | 2.24 m/s, 284° | 672 W/m² | - |
| 1787391962 | 19.44° C | 56% | 1009.2 hPa | 0 mm | 2.24 m/s, 276° | 153 W/m² | - |
| 1787391902 | 19.44° C | 57% | 1009.2 hPa | 0 mm | 1.79 m/s, 258° | 158 W/m² | - |
| 1787391842 | 19.44° C | 58% | 1009.2 hPa | 0 mm | 1.79 m/s, 253° | 698 W/m² | - |
| 1787391782 | 19.44° C | 57% | 1009 hPa | 0 mm | 1.79 m/s, 247° | 692 W/m² | - |
| 1787391722 | 19.44° C | 59% | 1009 hPa | 0 mm | 1.34 m/s, 221° | 607 W/m² | - |
| 1787391662 | 19.44° C | 57% | 1008.9 hPa | 0 mm | 2.68 m/s, 268° | 423 W/m² | - |
| 1787391602 | 19.44° C | 57% | 1009 hPa | 0 mm | 1.34 m/s, 207° | 475 W/m² | - |
| 1787391542 | 19.44° C | 58% | 1008.9 hPa | 0 mm | 0.89 m/s, 155° | 510 W/m² | - |
| 1787391482 | 19.44° C | 58% | 1009.2 hPa | 0 mm | 1.34 m/s, 142° | 508 W/m² | - |
| 1787391421 | 19.44° C | 59% | 1009 hPa | 0 mm | 1.79 m/s, 274° | 499 W/m² | - |
| 1787391362 | 19.44° C | 58% | 1009.1 hPa | 0 mm | 1.79 m/s, 246° | 633 W/m² | - |
* Rain latest hour (hover to see other rain measurements)
** Current wind speed in m/s (hover to see current wind gust speed)